| time (UTC) | temp F | wind direction | speed knots | gust knots | rain 1hr in | rain 24hr in | rain mn in | humidity % | barometer mb |
| 20260507095332 | 69 | 274 | 4.3 | 11.3 | 0.00 | 0.00 | 0.00 | 100 | 1012.5 |
| 20260507094132 | 70 | 248 | 8.7 | 12.2 | 0.00 | 0.00 | 0.00 | 100 | 1012.4 |
| 20260507092931 | 71 | 194 | 7.0 | 13.0 | 0.00 | 0.00 | 0.00 | 100 | 1012.3 |
| 20260507091730 | 71 | 205 | 7.8 | 14.8 | 0.00 | 0.00 | 0.00 | 100 | 1012.2 |
| 20260507090529 | 70 | 219 | 4.3 | 11.3 | 0.00 | 0.00 | 0.00 | 100 | 1012.1 |
| 20260507085329 | 71 | 170 | 7.0 | 13.0 | 0.00 | 0.00 | 0.00 | 100 | 1011.9 |
| 20260507084128 | 70 | 195 | 5.2 | 10.4 | 0.00 | 0.00 | 0.00 | 100 | 1011.8 |
| 20260507082927 | 70 | 216 | 3.5 | 10.4 | 0.00 | 0.00 | 0.00 | 100 | 1011.7 |
| 20260507081727 | 70 | 225 | 5.2 | 11.3 | 0.00 | 0.00 | 0.00 | 100 | 1011.6 |
| 20260507080526 | 69 | 248 | 7.8 | 12.2 | 0.00 | 0.00 | 0.00 | 100 | 1011.5 |
| 20260507075325 | 68 | 209 | 6.1 | 7.0 | 0.00 | 0.00 | 0.00 | 100 | 1011.5 |
| 20260507074125 | 68 | 209 | 3.5 | 9.6 | 0.00 | 0.00 | 0.00 | 100 | 1011.3 |
| 20260507072924 | 67 | 201 | 2.6 | 7.8 | 0.00 | 0.00 | 0.00 | 100 | 1011.3 |
| 20260507071723 | 65 | 189 | 8.7 | 10.4 | 0.00 | 0.00 | 0.00 | 100 | 1011.3 |
| 20260507070523 | 64 | 189 | 4.3 | 8.7 | 0.00 | 0.00 | 0.00 | 100 | 1011.2 |
| 20260507065322 | 63 | 187 | 7.0 | 9.6 | 0.00 | 0.00 | 0.00 | 100 | 1011.2 |
| 20260507064121 | 62 | 192 | 7.8 | 10.4 | 0.00 | 0.00 | 0.00 | 100 | 1011.1 |
| 20260507062921 | 62 | 202 | 4.3 | 7.8 | 0.00 | 0.00 | 0.00 | 100 | 1010.9 |
| 20260507061720 | 61 | 182 | 4.3 | 7.0 | 0.00 | 0.00 | 0.00 | 100 | 1010.9 |
| 20260507060519 | 61 | 149 | 1.7 | 3.5 | 0.00 | 0.00 | 0.00 | 100 | 1010.8 |
| 20260507055319 | 61 | 168 | 0.0 | 0.9 | 0.00 | 0.00 | 0.00 | 100 | 1010.7 |
| 20260507054118 | 60 | 151 | 0.9 | 2.6 | 0.00 | 0.00 | 0.00 | 100 | 1010.6 |
| 20260507052917 | 60 | 135 | 0.9 | 0.9 | 0.00 | 0.00 | 0.00 | 100 | 1010.4 |
| 20260507051717 | 59 | 147 | 0.0 | 1.7 | 0.00 | 0.00 | 0.00 | 100 | 1010.3 |
| 20260507050516 | 58 | 212 | 0.9 | 0.9 | 0.00 | 0.00 | 0.00 | 100 | 1010.3 |
| 20260507045315 | 58 | 199 | 0.0 | 2.6 | 0.00 | 0.00 | 0.00 | 100 | 1010.3 |
| 20260507044115 | 58 | 254 | 0.9 | 2.6 | 0.00 | 0.00 | 0.00 | 100 | 1010.0 |
| 20260507042914 | 57 | 258 | 0.0 | 0.0 | 0.00 | 0.00 | 0.00 | 100 | 1009.8 |
| 20260507041713 | 57 | 282 | 1.7 | 1.7 | 0.00 | 0.00 | 0.00 | 100 | 1009.6 |
| 20260507040512 | 57 | 146 | 0.0 | 0.0 | 0.00 | 0.00 | 0.00 | 100 | 1009.6 |
| 20260507035312 | 57 | 146 | 0.0 | 0.9 | 0.00 | 0.00 | 0.00 | 100 | 1009.4 |
| 20260507034111 | 57 | 125 | 0.0 | 0.0 | 0.00 | 0.00 | 0.00 | 100 | 1009.2 |
| 20260507032910 | 57 | 125 | 0.0 | 0.0 | 0.00 | 0.00 | 0.00 | 100 | 1009.1 |
| 20260507031710 | 57 | 125 | 0.0 | 0.9 | 0.00 | 0.00 | 0.00 | 100 | 1009.1 |
| 20260507030509 | 56 | 144 | 0.0 | 1.7 | 0.00 | 0.00 | 0.00 | 100 | 1009.1 |
| 20260507025308 | 56 | 171 | 2.6 | 2.6 | 0.00 | 0.00 | 0.00 | 100 | 1009.0 |
| 20260507024108 | 56 | 156 | 0.9 | 2.6 | 0.00 | 0.00 | 0.00 | 100 | 1008.9 |
| 20260507022907 | 56 | 147 | 0.0 | 2.6 | 0.00 | 0.00 | 0.00 | 100 | 1008.8 |
| 20260507021706 | 56 | 163 | 1.7 | 4.3 | 0.00 | 0.00 | 0.00 | 100 | 1008.5 |
| 20260507020506 | 56 | 338 | 4.3 | 7.0 | 0.00 | 0.00 | 0.00 | 100 | 1008.4 |
| 20260507015306 | 55 | 322 | 5.2 | 6.1 | 0.00 | 0.00 | 0.00 | 100 | 1008.4 |
| 20260507014104 | 55 | 312 | 5.2 | 6.1 | 0.00 | 0.00 | 0.00 | 100 | 1008.3 |
| 20260507012904 | 56 | 351 | 0.0 | 2.6 | 0.00 | 0.00 | 0.00 | 100 | 1008.2 |
| 20260507011703 | 56 | 154 | 0.0 | 0.9 | 0.00 | 0.00 | 0.00 | 100 | 1008.2 |
| 20260507010502 | 56 | 171 | 1.7 | 2.6 | 0.00 | 0.00 | 0.00 | 100 | 1008.0 |
| 20260507005305 | 57 | 262 | 1.7 | 1.7 | 0.00 | 0.00 | 0.00 | 100 | 1008.1 |
| 20260507004101 | 57 | 271 | 0.0 | 0.0 | 0.00 | 0.00 | 0.00 | 100 | 1008.1 |
| 20260507002900 | 57 | 299 | 0.9 | 1.7 | 0.00 | 0.00 | 0.00 | 100 | 1008.0 |
| 20260507001700 | 58 | 94 | 0.9 | 2.6 | 0.00 | 0.00 | 0.00 | 100 | 1007.9 |
| 20260507000459 | 58 | 74 | 1.7 | 2.6 | 0.00 | 0.00 | 0.00 | 100 | 1007.9 |
| 20260506235258 | 58 | 112 | 0.0 | 2.6 | 0.00 | 0.00 | 0.00 | 100 | 1008.3 |
| 20260506234057 | 58 | 320 | 1.7 | 6.1 | 0.00 | 0.00 | 0.00 | 100 | 1008.1 |
| 20260506232857 | 59 | 26 | 1.7 | 5.2 | 0.00 | 0.00 | 0.00 | 100 | 1008.0 |
| 20260506231656 | 59 | 357 | 2.6 | 7.8 | 0.00 | 0.00 | 0.00 | 100 | 1007.9 |
| 20260506230455 | 60 | 12 | 3.5 | 7.8 | 0.00 | 0.00 | 0.00 | 100 | 1008.0 |
| 20260506225255 | 60 | 337 | 4.3 | 7.8 | 0.00 | 0.00 | 0.00 | 100 | 1008.0 |
| 20260506224054 | 61 | 336 | 6.1 | 8.7 | 0.00 | 0.00 | 0.00 | 100 | 1007.9 |
| 20260506222853 | 65 | 284 | 0.9 | 4.3 | 0.00 | 0.00 | 0.00 | 100 | 1007.9 |
| 20260506221653 | 64 | 165 | 5.2 | 7.8 | 0.00 | 0.00 | 0.00 | 100 | 1007.8 |
| 20260506220452 | 64 | 185 | 4.3 | 9.6 | 0.00 | 0.00 | 0.00 | 100 | 1007.7 |
| 20260506215252 | 64 | 192 | 5.2 | 7.8 | 0.00 | 0.00 | 0.00 | 100 | 1007.6 |
| 20260506214051 | 64 | 161 | 7.8 | 13.0 | 0.00 | 0.00 | 0.00 | 100 | 1007.5 |
| 20260506212850 | 64 | 184 | 7.0 | 12.2 | 0.00 | 0.00 | 0.00 | 100 | 1007.5 |
| 20260506211649 | 65 | 149 | 9.6 | 9.6 | 0.00 | 0.00 | 0.00 | 100 | 1007.5 |
| 20260506210449 | 66 | 195 | 6.1 | 7.8 | 0.00 | 0.00 | 0.00 | 100 | 1007.4 |
| 20260506205248 | 66 | 189 | 5.2 | 10.4 | 0.00 | 0.00 | 0.00 | 100 | 1007.3 |
| 20260506204047 | 67 | 157 | 9.6 | 13.0 | 0.00 | 0.00 | 0.00 | 100 | 1007.3 |
| 20260506202847 | 67 | 188 | 7.8 | 13.9 | 0.00 | 0.00 | 0.00 | 100 | 1007.2 |
| 20260506201646 | 67 | 195 | 7.8 | 9.6 | 0.00 | 0.00 | 0.00 | 100 | 1007.3 |
| 20260506200445 | 67 | 160 | 6.1 | 11.3 | 0.00 | 0.00 | 0.00 | 100 | 1007.1 |
| 20260506195245 | 67 | 185 | 6.1 | 11.3 | 0.00 | 0.00 | 0.00 | 100 | 1007.1 |
| 20260506194044 | 67 | 158 | 3.5 | 7.8 | 0.00 | 0.00 | 0.00 | 100 | 1007.0 |
| 20260506192843 | 67 | 143 | 4.3 | 7.0 | 0.00 | 0.00 | 0.00 | 100 | 1007.0 |
| 20260506191643 | 67 | 180 | 4.3 | 6.1 | 0.00 | 0.00 | 0.00 | 100 | 1007.0 |
| 20260506191245 | 67 | 147 | 4.3 | 4.3 | 0.00 | 0.00 | 0.00 | 100 | 1006.8 |
| 20260506190442 | 68 | 165 | 4.3 | 7.0 | 0.00 | 0.00 | 0.00 | 100 | 1006.7 |
| 20260506185241 | 68 | 135 | 6.1 | 10.4 | 0.00 | 0.00 | 0.00 | 100 | 1006.6 |
| 20260506184040 | 68 | 144 | 4.3 | 13.9 | 0.00 | 0.00 | 0.00 | 100 | 1006.4 |
| 20260506182840 | 69 | 137 | 7.0 | 13.9 | 0.00 | 0.00 | 0.00 | 100 | 1006.2 |
| 20260506181639 | 69 | 153 | 12.2 | 13.0 | 0.00 | 0.00 | 0.00 | 100 | 1006.2 |
| 20260506180438 | 70 | 156 | 8.7 | 15.6 | 0.00 | 0.00 | 0.00 | 100 | 1006.2 |
| 20260506175238 | 70 | 153 | 9.6 | 16.5 | 0.00 | 0.00 | 0.00 | 100 | 1006.2 |
| 20260506174037 | 71 | 135 | 8.7 | 18.2 | 0.00 | 0.00 | 0.00 | 100 | 1006.2 |
| 20260506172836 | 71 | 150 | 12.2 | 17.4 | 0.00 | 0.00 | 0.00 | 100 | 1006.2 |
| 20260506171636 | 72 | 157 | 9.6 | 16.5 | 0.00 | 0.00 | 0.00 | 100 | 1006.3 |
| 20260506170435 | 72 | 178 | 9.6 | 20.0 | 0.00 | 0.00 | 0.00 | 100 | 1006.5 |
| 20260506165234 | 73 | 182 | 14.8 | 21.7 | 0.00 | 0.00 | 0.00 | 100 | 1006.4 |
| 20260506164034 | 73 | 199 | 13.0 | 19.1 | 0.00 | 0.00 | 0.00 | 100 | 1006.4 |
| 20260506162833 | 74 | 203 | 12.2 | 15.6 | 0.00 | 0.00 | 0.00 | 100 | 1006.5 |
| 20260506161632 | 74 | 160 | 14.8 | 18.2 | 0.00 | 0.00 | 0.00 | 100 | 1006.7 |
| 20260506160432 | 75 | 154 | 10.4 | 14.8 | 0.00 | 0.00 | 0.00 | 100 | 1006.8 |
| 20260506155231 | 75 | 188 | 6.1 | 11.3 | 0.00 | 0.00 | 0.00 | 100 | 1007.1 |
| 20260506154030 | 73 | 165 | 7.8 | 10.4 | 0.00 | 0.00 | 0.00 | 100 | 1007.4 |
| 20260506152830 | 73 | 146 | 10.4 | 14.8 | 0.00 | 0.00 | 0.00 | 100 | 1007.4 |
| 20260506151629 | 74 | 191 | 6.1 | 11.3 | 0.00 | 0.00 | 0.00 | 100 | 1007.4 |
| 20260506150428 | 75 | 181 | 8.7 | 12.2 | 0.00 | 0.00 | 0.00 | 100 | 1007.5 |
| 20260506145227 | 75 | 194 | 6.1 | 9.6 | 0.00 | 0.00 | 0.00 | 100 | 1007.7 |
| 20260506144027 | 74 | 184 | 6.1 | 13.0 | 0.00 | 0.00 | 0.00 | 100 | 1007.8 |
| 20260506142826 | 74 | 187 | 7.8 | 13.0 | 0.00 | 0.00 | 0.00 | 100 | 1007.8 |
| 20260506141625 | 75 | 188 | 5.2 | 11.3 | 0.00 | 0.00 | 0.00 | 100 | 1007.9 |
| 20260506140425 | 76 | 170 | 13.9 | 17.4 | 0.00 | 0.00 | 0.00 | 100 | 1007.9 |
| 20260506135224 | 75 | 212 | 7.8 | 14.8 | 0.00 | 0.00 | 0.00 | 100 | 1008.0 |
| 20260506134023 | 77 | 175 | 8.7 | 14.8 | 0.00 | 0.00 | 0.00 | 100 | 1008.1 |
| 20260506132823 | 75 | 201 | 7.0 | 14.8 | 0.00 | 0.00 | 0.00 | 100 | 1008.2 |
| 20260506131622 | 75 | 226 | 9.6 | 14.8 | 0.00 | 0.00 | 0.00 | 100 | 1008.3 |
| 20260506130421 | 78 | 215 | 8.7 | 13.9 | 0.00 | 0.00 | 0.00 | 100 | 1008.3 |
| 20260506125221 | 78 | 177 | 9.6 | 20.9 | 0.00 | 0.00 | 0.00 | 100 | 1008.2 |
| 20260506124020 | 78 | 149 | 13.9 | 16.5 | 0.00 | 0.00 | 0.00 | 100 | 1008.4 |
| 20260506122819 | 77 | 171 | 4.3 | 13.9 | 0.00 | 0.00 | 0.00 | 100 | 1008.5 |
| 20260506121619 | 77 | 180 | 7.8 | 13.0 | 0.00 | 0.00 | 0.00 | 100 | 1008.4 |
| 20260506120418 | 76 | 168 | 12.2 | 14.8 | 0.00 | 0.00 | 0.00 | 100 | 1008.5 |
| 20260506115217 | 77 | 189 | 9.6 | 18.2 | 0.00 | 0.00 | 0.00 | 100 | 1008.4 |
| 20260506114017 | 75 | 185 | 8.7 | 18.2 | 0.00 | 0.00 | 0.00 | 100 | 1008.5 |
| 20260506112816 | 76 | 161 | 14.8 | 17.4 | 0.00 | 0.00 | 0.00 | 100 | 1008.5 |
| 20260506111615 | 76 | 223 | 12.2 | 18.2 | 0.00 | 0.00 | 0.00 | 100 | 1008.6 |
| 20260506110415 | 76 | 180 | 8.7 | 17.4 | 0.00 | 0.00 | 0.00 | 100 | 1008.6 |
| 20260506105214 | 76 | 187 | 14.8 | 21.7 | 0.00 | 0.00 | 0.00 | 100 | 1008.5 |
| 20260506104013 | 76 | 163 | 15.6 | 18.2 | 0.00 | 0.00 | 0.00 | 100 | 1008.4 |
| 20260506102813 | 75 | 185 | 12.2 | 20.0 | 0.00 | 0.00 | 0.00 | 100 | 1008.6 |
| 20260506101612 | 75 | 188 | 7.8 | 15.6 | 0.00 | 0.00 | 0.00 | 100 | 1008.7 |
| 20260506100411 | 73 | 178 | 13.0 | 16.5 | 0.00 | 0.00 | 0.00 | 100 | 1008.8 |